SB KEPS @ AMSAT $ORB11300.O Orbital Elements 11300.OSCAR
HR AMSAT ORBITAL ELEMENTS FOR OSCAR SATELLITES FROM WA5QGD FORT WORTH,TX October 27, 2011 Send Subscribe/unsubscribe to KEPS at http://www.amsat.org/mailman/listinfo/keps BID: ORB11300.O TO ALL RADIO AMATEURS BT
Satellite: AO-07 Catalog number: 07530 Epoch time: 11300.63396314 Element set: 215 Inclination: 101.3976 deg RA of node: 301.9659 deg Eccentricity: 0.0011916 Arg of perigee: 021.2000 deg Mean anomaly: 338.9562 deg Mean motion: 12.53584769 rev/day Decay rate: -2.7e-07 rev/day^2 Epoch rev: 69078 Checksum: 290
Satellite: FO-29 Catalog number: 24278 Epoch time: 11299.90964725 Element set: 693 Inclination: 098.5667 deg RA of node: 066.4133 deg Eccentricity: 0.0349730 Arg of perigee: 275.9906 deg Mean anomaly: 080.1487 deg Mean motion: 13.52966838 rev/day Decay rate: -1.3e-07 rev/day^2 Epoch rev: 75027 Checksum: 360
Satellite: SO-33 Catalog number: 25509 Epoch time: 11300.18142187 Element set: 85 Inclination: 031.4363 deg RA of node: 217.7238 deg Eccentricity: 0.0353534 Arg of perigee: 315.8988 deg Mean anomaly: 041.3977 deg Mean motion: 14.28483072 rev/day Decay rate: 1.156e-05 rev/day^2 Epoch rev: 67916 Checksum: 313
Satellite: RS-22 Catalog number: 27939 Epoch time: 11300.71260478 Element set: 756 Inclination: 097.8276 deg RA of node: 148.2725 deg Eccentricity: 0.0012529 Arg of perigee: 288.0158 deg Mean anomaly: 071.9682 deg Mean motion: 14.63708628 rev/day Decay rate: 1.382e-05 rev/day^2 Epoch rev: 43172 Checksum: 329
Satellite: VO-52 Catalog number: 28650 Epoch time: 11300.55065171 Element set: 934 Inclination: 097.6280 deg RA of node: 337.6668 deg Eccentricity: 0.0027967 Arg of perigee: 087.8015 deg Mean anomaly: 272.6408 deg Mean motion: 14.82310962 rev/day Decay rate: 3.087e-05 rev/day^2 Epoch rev: 35035 Checksum: 318
Satellite: SO-67 Catalog number: 35870 Epoch time: 11300.89108796 Element set: 352 Inclination: 097.2656 deg RA of node: 339.7585 deg Eccentricity: 0.0000552 Arg of perigee: 289.1564 deg Mean anomaly: 064.9634 deg Mean motion: 15.21552378 rev/day Decay rate: 6.783e-05 rev/day^2 Epoch rev: 11710 Checksum: 335
Satellite: HO-68 Catalog number: 36122 Epoch time: 11300.72027981 Element set: 869 Inclination: 100.3994 deg RA of node: 359.4292 deg Eccentricity: 0.0007199 Arg of perigee: 283.1064 deg Mean anomaly: 076.9242 deg Mean motion: 13.16289364 rev/day Decay rate: -4.4e-07 rev/day^2 Epoch rev: 8967 Checksum: 325
/EX SB KEPS @ AMSAT $ORB11300.D Orbital Elements 11300.MICROS
HR AMSAT ORBITAL ELEMENTS FOR THE MICROSATS FROM WA5QGD FORT WORTH,TX October 27, 2011 Send Subscribe/unsubscribe to KEPS at http://www.amsat.org/mailman/listinfo/keps BID: ORB11300.D TO ALL RADIO AMATEURS BT
Satellite: UO-11 Catalog number: 14781 Epoch time: 11300.37917893 Element set: 690 Inclination: 097.9891 deg RA of node: 356.5597 deg Eccentricity: 0.0010074 Arg of perigee: 072.3352 deg Mean anomaly: 287.8958 deg Mean motion: 14.80106700 rev/day Decay rate: 1.373e-05 rev/day^2 Epoch rev: 48534 Checksum: 328
Satellite: AO-16 Catalog number: 20439 Epoch time: 11299.87743610 Element set: 311 Inclination: 098.3992 deg RA of node: 245.1885 deg Eccentricity: 0.0011419 Arg of perigee: 129.4742 deg Mean anomaly: 230.7453 deg Mean motion: 14.31958974 rev/day Decay rate: 3.00e-06 rev/day^2 Epoch rev: 13646 Checksum: 314
Satellite: LO-19 Catalog number: 20442 Epoch time: 11300.84460457 Element set: 232 Inclination: 098.3646 deg RA of node: 249.9765 deg Eccentricity: 0.0012595 Arg of perigee: 120.4880 deg Mean anomaly: 239.7551 deg Mean motion: 14.32183104 rev/day Decay rate: 3.40e-06 rev/day^2 Epoch rev: 13678 Checksum: 296
Satellite: AO-27 Catalog number: 22825 Epoch time: 11299.82280215 Element set: 946 Inclination: 098.5439 deg RA of node: 241.6430 deg Eccentricity: 0.0007607 Arg of perigee: 247.6167 deg Mean anomaly: 112.4219 deg Mean motion: 14.29380365 rev/day Decay rate: 1.82e-06 rev/day^2 Epoch rev: 94299 Checksum: 323
Satellite: IO-26 Catalog number: 22826 Epoch time: 11300.00796645 Element set: 691 Inclination: 098.5390 deg RA of node: 242.2582 deg Eccentricity: 0.0008051 Arg of perigee: 241.9026 deg Mean anomaly: 118.1340 deg Mean motion: 14.29646374 rev/day Decay rate: 2.95e-06 rev/day^2 Epoch rev: 94314 Checksum: 294
Satellite: GO-32 Catalog number: 25397 Epoch time: 11300.57483671 Element set: 614 Inclination: 098.3390 deg RA of node: 286.1378 deg Eccentricity: 0.0000510 Arg of perigee: 206.1035 deg Mean anomaly: 154.0123 deg Mean motion: 14.23229022 rev/day Decay rate: 1.76e-06 rev/day^2 Epoch rev: 69079 Checksum: 276
Satellite: NO-44 Catalog number: 26931 Epoch time: 11300.67909532 Element set: 882 Inclination: 067.0550 deg RA of node: 002.1245 deg Eccentricity: 0.0004873 Arg of perigee: 261.0863 deg Mean anomaly: 098.9690 deg Mean motion: 14.29702256 rev/day Decay rate: 5.35e-06 rev/day^2 Epoch rev: 52586 Checksum: 306
Satellite: SO-50 Catalog number: 27607 Epoch time: 11300.35888515 Element set: 599 Inclination: 064.5582 deg RA of node: 285.9979 deg Eccentricity: 0.0082268 Arg of perigee: 293.8470 deg Mean anomaly: 065.4010 deg Mean motion: 14.71916198 rev/day Decay rate: 2.307e-05 rev/day^2 Epoch rev: 47554 Checksum: 345
Satellite: CO-55 Catalog number: 27844 Epoch time: 11299.58194834 Element set: 229 Inclination: 098.7064 deg RA of node: 306.3870 deg Eccentricity: 0.0009695 Arg of perigee: 175.6729 deg Mean anomaly: 184.4515 deg Mean motion: 14.20873056 rev/day Decay rate: 6.94e-06 rev/day^2 Epoch rev: 43157 Checksum: 352
Satellite: CO-57 Catalog number: 27848 Epoch time: 11299.54599936 Element set: 175 Inclination: 098.7118 deg RA of node: 305.5872 deg Eccentricity: 0.0009544 Arg of perigee: 180.5586 deg Mean anomaly: 179.5617 deg Mean motion: 14.20645651 rev/day Decay rate: 6.12e-06 rev/day^2 Epoch rev: 43151 Checksum: 348
Satellite: AO-51 Catalog number: 28375 Epoch time: 11300.13080702 Element set: 105 Inclination: 098.1146 deg RA of node: 271.7547 deg Eccentricity: 0.0084898 Arg of perigee: 030.3227 deg Mean anomaly: 330.2848 deg Mean motion: 14.40805458 rev/day Decay rate: 3.28e-06 rev/day^2 Epoch rev: 38506 Checksum: 291
Satellite: CP3 Catalog number: 31129 Epoch time: 11299.99622832 Element set: 3 Inclination: 097.8934 deg RA of node: 316.5563 deg Eccentricity: 0.0102431 Arg of perigee: 130.9452 deg Mean anomaly: 230.0669 deg Mean motion: 14.52635262 rev/day Decay rate: 1.672e-05 rev/day^2 Epoch rev: 23997 Checksum: 305
Satellite: CO-65 Catalog number: 32785 Epoch time: 11299.72864407 Element set: 133 Inclination: 097.8358 deg RA of node: 001.0097 deg Eccentricity: 0.0016000 Arg of perigee: 105.9016 deg Mean anomaly: 254.3990 deg Mean motion: 14.82265047 rev/day Decay rate: 2.766e-05 rev/day^2 Epoch rev: 18902 Checksum: 310
Satellite: PRISM Catalog number: 33493 Epoch time: 11300.70569380 Element set: 92 Inclination: 098.1416 deg RA of node: 071.4205 deg Eccentricity: 0.0018913 Arg of perigee: 335.1324 deg Mean anomaly: 024.8961 deg Mean motion: 14.82257794 rev/day Decay rate: 5.105e-05 rev/day^2 Epoch rev: 14914 Checksum: 284
Satellite: SOHLA-1 Catalog number: 33496 Epoch time: 11300.20149128 Element set: 553 Inclination: 098.0901 deg RA of node: 048.7753 deg Eccentricity: 0.0007629 Arg of perigee: 067.9985 deg Mean anomaly: 292.2031 deg Mean motion: 14.69714337 rev/day Decay rate: 9.97e-06 rev/day^2 Epoch rev: 14787 Checksum: 326
Satellite: TISAT-1 Catalog number: 36799 Epoch time: 11300.72267090 Element set: 362 Inclination: 098.0894 deg RA of node: 010.2136 deg Eccentricity: 0.0014841 Arg of perigee: 205.0432 deg Mean anomaly: 154.9981 deg Mean motion: 14.80925005 rev/day Decay rate: 3.115e-05 rev/day^2 Epoch rev: 6992 Checksum: 285
Satellite: STUDSAT Catalog number: 36801 Epoch time: 11300.30150113 Element set: 265 Inclination: 098.0927 deg RA of node: 009.7666 deg Eccentricity: 0.0013273 Arg of perigee: 195.9717 deg Mean anomaly: 164.1078 deg Mean motion: 14.81561809 rev/day Decay rate: 1.1067e-04 rev/day^2 Epoch rev: 6985 Checksum: 294
Satellite: OOREOS Catalog number: 37224 Epoch time: 11283.12196780 Element set: 0302 Inclination: 071.9656 deg RA of node: 145.3580 deg Eccentricity: 0.0018647 Arg of perigee: 057.9354 deg Mean anomaly: 302.3616 deg Mean motion: 14.77183931 rev/day Decay rate: 9.55e-06 rev/day^2 Epoch rev: 04784 Checksum: 307
Satellite: FO-69 Catalog number: 37227 Epoch time: 11298.39961576 Element set: 0008 Inclination: 071.9664 deg RA of node: 112.1333 deg Eccentricity: 0.0015927 Arg of perigee: 034.6766 deg Mean anomaly: 325.5479 deg Mean motion: 14.76710336 rev/day Decay rate: 1.486e-05 rev/day^2 Epoch rev: 00128 Checksum: 326
Satellite: NANOSALD Catalog number: 37361 Epoch time: 11242.25215765 Element set: 0351 Inclination: 071.9735 deg RA of node: 221.4469 deg Eccentricity: 0.0025730 Arg of perigee: 245.3422 deg Mean anomaly: 114.7284 deg Mean motion: 15.22200108 rev/day Decay rate: 1.80112e-03 rev/day^2 Epoch rev: 03331 Checksum: 248
Satellite: FO-70 Catalog number: 37380 Epoch time: 11298.43402580 Element set: 0008 Inclination: 071.9713 deg RA of node: 112.3243 deg Eccentricity: 0.0016683 Arg of perigee: 031.7370 deg Mean anomaly: 328.4848 deg Mean motion: 14.76473112 rev/day Decay rate: 1.549e-05 rev/day^2 Epoch rev: 00118 Checksum: 283
/EX SB KEPS @ AMSAT $ORB11300.W Orbital Elements 11300.WEATHER
HR AMSAT ORBITAL ELEMENTS FOR WEATHER SATELLITES FROM WA5QGD FORT WORTH,TX October 27, 2011 Send Subscribe/unsubscribe to KEPS at http://www.amsat.org/mailman/listinfo/keps BID: ORB11300.W TO ALL RADIO AMATEURS BT
Satellite: NOAA-10 Catalog number: 16969 Epoch time: 11300.68687433 Element set: 682 Inclination: 098.6089 deg RA of node: 328.6015 deg Eccentricity: 0.0011931 Arg of perigee: 194.4153 deg Mean anomaly: 165.6688 deg Mean motion: 14.27490225 rev/day Decay rate: 2.81e-06 rev/day^2 Epoch rev: 30655 Checksum: 321
